This demonstration page uses our WeatherBlox Daily Observations layout. Learn more.

40.92945, -100.16068

Hourly Observations for April 27, 2018

Temp ( °F °C ) Dew Point ( °F °C ) Humidity (%) Winds ( mph kmh ) Pressure ( in mb ) Visibility ( mi km ) Precip ( " mm )
12:15 am 00:15 Clear 38 3.1 30 -0.9 75 75 WNW 3 6 30.21 1023 10 16.0934 0 0
12:35 am 00:35 Clear 38 3.6 29 -1.5 70 70 NW 3 6 30.18 1022 10 16.0934 0 0
12:55 am 00:55 Clear 37 2.6 30 -1.3 76 76 NW 5 7 30.18 1022 10 16.0934 0 0
1:15 am 01:15 Clear 36 2 29 -1.5 78 78 NW 6 9 30.18 1022 10 16.0934 0 0
1:35 am 01:35 Clear 36 2.2 29 -1.5 77 77 NW 3 6 30.18 1022 10 16.0934 0 0
1:55 am 01:55 Clear 36 2.3 29 -1.5 76 76 NW 6 9 30.18 1022 10 16.0934 0 0
2:15 am 02:15 Clear 35 1.9 29 -1.5 78 78 NW 3 6 30.18 1022 10 16.0934 0 0
2:30 am 02:30 Clear 35 1.6 29 -1.6 80 80 NW 5 7 30.18 1022 10 16.0934 0 0
2:55 am 02:55 Clear 34 1.2 30 -1.1 85 85 WNW 5 7 30.21 1023 10 16.0934 0 0
3:15 am 03:15 Clear 34 1.1 30 -1.1 85 85 NW 5 7 30.21 1023 10 16.0934 0 0
3:35 am 03:35 Clear 35 1.4 30 -1.2 83 83 NW 3 6 30.21 1023 10 16.0934 0 0
3:55 am 03:55 Clear 33 0.6 29 -1.6 85 85 WNW 5 7 30.21 1023 10 16.0934 0 0
4:15 am 04:15 Clear 34 1.1 29 -1.7 82 82 W 6 9 30.21 1023 10 16.0934 0 0
4:35 am 04:35 Clear 33 0.6 29 -1.9 84 84 WNW 7 11 30.21 1023 10 16.0934 0 0
4:55 am 04:55 Clear 34 0.9 29 -1.7 83 83 WNW 3 6 30.18 1022 10 16.0934 0 0
5:15 am 05:15 Clear 33 0.7 29 -1.9 83 83 WNW 5 7 30.18 1022 10 16.0934 0 0
5:35 am 05:35 Clear 34 1 29 -1.7 82 82 WNW 6 9 30.18 1022 10 16.0934 0 0
5:55 am 05:55 Clear 34 1.3 29 -1.7 81 81 W 6 9 30.15 1021 10 16.0934 0 0
6:15 am 06:15 Clear 33 0.6 28 -2 83 83 W 5 7 30.18 1022 10 16.0934 0 0
6:35 am 06:35 Clear 32 0.2 28 -2.3 84 84 W 5 7 30.18 1022 10 16.0934 0 0
6:55 am 06:55 Sunny 33 0.3 29 -1.8 86 86 W 5 7 30.18 1022 10 16.0934 0 0
7:15 am 07:15 Sunny 33 0.4 29 -1.5 87 87 W 6 9 30.18 1022 10 16.0934 0 0
7:35 am 07:35 Sunny 34 1.3 31 -0.8 86 86 W 3 6 30.15 1021 10 16.0934 0 0
7:55 am 07:55 Sunny 37 2.5 32 0.2 85 85 Calm 30.15 1021 10 16.0934 0 0
8:15 am 08:15 Sunny 40 4.4 33 0.7 77 77 Calm 30.12 1020 10 16.0934 0 0
8:35 am 08:35 Sunny 43 5.9 35 1.7 75 75 W 3 6 30.12 1020 10 16.0934 0 0
8:55 am 08:55 Sunny 46 7.6 35 1.6 66 66 WNW 6 9 30.09 1019 10 16.0934 0 0
9:15 am 09:15 Sunny 49 9.3 36 2 61 61 WNW 8 13 30.06 1018 10 16.0934 0 0
9:35 am 09:35 Sunny 53 11.6 35 1.9 52 52 WNW 13 20 30.03 1017 10 16.0934 0 0
9:55 am 09:55 Sunny 56 13.2 36 2.3 48 48 WNW 10 17 30.03 1017 10 16.0934 0 0
10:15 am 10:15 Sunny 58 14.3 37 2.9 46 46 WNW 10 17 30 1016 10 16.0934 0 0
10:35 am 10:35 Sunny 60 15.7 38 3.2 43 43 WNW 12 19 30 1016 10 16.0934 0 0
10:55 am 10:55 Sunny 62 16.7 38 3.2 41 41 WNW 10 17 30 1016 10 16.0934 0 0
11:15 am 11:15 Sunny 65 18.1 37 3 37 37 NW 9 15 29.97 1015 10 16.0934 0 0
11:35 am 11:35 Sunny 66 19.1 37 3 34 34 WNW 9 15 29.97 1015 10 16.0934 0 0
11:55 am 11:55 Sunny 68 20 37 2.8 32 32 WNW 13 20 29.97 1015 10 16.0934 0 0
12:15 pm 12:15 Sunny 70 21 37 2.6 30 30 WNW 12 19 29.94 1014 10 16.0934 0 0
12:35 pm 12:35 Sunny 71 21.7 36 2.1 28 28 NW 8 13 29.94 1014 10 16.0934 0 0
12:55 pm 12:55 Sunny 72 22.2 34 0.9 24 24 NNW 7 11 29.94 1014 10 16.0934 0 0
1:15 pm 13:15 Sunny 73 22.5 35 1.4 25 25 WNW 13 20 29.94 1014 10 16.0934 0 0
1:35 pm 13:35 Sunny 73 22.7 35 1.5 25 25 NW 9 15 29.91 1013 10 16.0934 0 0
1:55 pm 13:55 Sunny 74 23.2 34 1.3 24 24 NW 12 19 29.91 1013 10 16.0934 0 0
2:15 pm 14:15 Sunny 75 24.1 34 0.9 22 22 NW 8 13 29.88 1012 10 16.0934 0 0
2:35 pm 14:35 Sunny 76 24.4 30 -0.9 19 19 NW 10 17 29.88 1012 10 16.0934 0 0
2:55 pm 14:55 Sunny 76 24.7 31 -0.4 19 19 NNW 17 28 29.88 1012 10 16.0934 0 0
3:15 pm 15:15 Sunny 77 24.9 32 -0.2 19 19 NNW 16 26 29.85 1011 10 16.0934 0 0
3:35 pm 15:35 Sunny 77 24.9 32 -0.1 19 19 N 12 19 29.85 1011 10 16.0934 0 0
3:55 pm 15:55 Sunny 77 25 31 -0.3 19 19 N 17 28 29.85 1011 10 16.0934 0 0
4:15 pm 16:15 Sunny 77 25.1 31 -0.3 19 19 N 14 22 29.85 1011 10 16.0934 0 0
4:35 pm 16:35 Sunny 77 24.9 32 -0.1 19 19 NW 7 11 29.85 1011 10 16.0934 0 0
4:55 pm 16:55 Sunny 77 24.9 31 -0.7 18 18 N 13 20 29.85 1011 10 16.0934 0 0
5:15 pm 17:15 Sunny 76 24.7 31 -0.5 19 19 N 12 19 29.83 1010 10 16.0934 0 0
5:35 pm 17:35 Sunny 76 24.6 31 -0.6 19 19 NNE 9 15 29.85 1011 10 16.0934 0 0
5:55 pm 17:55 Sunny 76 24.6 31 -0.3 19 19 N 9 15 29.85 1011 10 16.0934 0 0
6:15 pm 18:15 Sunny 76 24.5 32 -0.1 20 20 N 14 22 29.85 1011 10 16.0934 0 0
6:35 pm 18:35 Sunny 76 24.3 32 0 20 20 N 8 13 29.85 1011 10 16.0934 0 0
6:55 pm 18:55 Sunny 75 23.7 33 0.7 22 22 NE 9 15 29.85 1011 10 16.0934 0 0
7:15 pm 19:15 Sunny 74 23.2 34 1 23 23 NNE 15 24 29.85 1011 10 16.0934 0 0
7:35 pm 19:35 Sunny 71 21.9 36 2.2 27 27 NNE 17 28 29.88 1012 10 16.0934 0 0
7:55 pm 19:55 Sunny 69 20.5 36 2.2 30 30 NNE 15 24 29.88 1012 10 16.0934 0 0
8:15 pm 20:15 Sunny 66 18.9 36 2.1 33 33 NE 13 20 29.91 1013 10 16.0934 0 0
8:35 pm 20:35 Clear 63 17.1 36 2.1 37 37 NE 10 17 29.94 1014 10 16.0934 0 0
8:55 pm 20:55 Clear 60 15.8 36 2.4 41 41 ENE 10 17 29.97 1015 10 16.0934 0 0
9:15 pm 21:15 Clear 60 15.5 36 2.1 41 41 NE 12 19 29.97 1015 10 16.0934 0 0
9:35 pm 21:35 Clear 57 13.8 36 2.4 46 46 NE 8 13 30 1016 10 16.0934 0 0
9:55 pm 21:55 Clear 55 13 37 2.5 49 49 ENE 7 11 30.03 1017 10 16.0934 0 0
10:15 pm 22:15 Clear 54 12.1 36 2.2 51 51 NE 8 13 30.03 1017 10 16.0934 0 0
10:35 pm 22:35 Clear 53 11.5 35 1.9 52 52 ENE 7 11 30.03 1017 10 16.0934 0 0
10:55 pm 22:55 Clear 51 10.7 35 1.8 54 54 ENE 8 13 30.03 1017 10 16.0934 0 0
11:15 pm 23:15 Clear 50 10 35 1.7 57 57 NE 7 11 30.06 1018 10 16.0934 0 0
11:35 pm 23:35 Clear 49 9.3 35 1.7 59 59 NE 8 13 30.06 1018 10 16.0934 0 0
11:55 pm 23:55 Clear 47 8.5 35 1.6 62 62 NE 9 15 30.06 1018 10 16.0934 0 0

Powered by AerisWeather